Orbital elements:  2016-038C = NORAD 41590 = Falcon 9-026 Stage 2
   Perigee 2023 Sep 10.014853 +/- 9.74e-6 TT =  0:21:23.2 (JD 2460197.514853)
Epoch 2023 Sep 10.0 TT; AMR 0.033551 +/- 0.0011 m2/kg           Find_Orb
M 352.402654020 +/- 0.0050          (J2000 equator)
n 511.518203366 +/- 0.00309         Peri.  270.383001 +/- 0.0020
a 33421.76981 +/- 0.135             Node   189.635280 +/- 0.0008
e   0.80368421 +/- 4.14e-6          Incl.   20.268851 +/- 0.000021
P1013.43m/0.704d           H 25.59  G  0.15   U  8.9
q 6561.220954 +/- 0.128    Q 60282.31868 +/- 0.333
From 67 observations 2023 Sept. 8-10; mean residual 6".208
Residuals in arcseconds: 
230908 T05 3.25+ 1.65-    230908 Y01 .426- .150+    230910 113 10.2+ 4.88+
230908 T05 2.20+ 1.61-    230908 Y01 .559- 1.40+    230910 113 20.2+ 8.78+
230908 T05 3.62+ 1.72-    230909 J95 .621+ .258-    230910 113 18.7+ 7.88+
230908 T05 3.56+ 1.75-    230909 J95 1.22+ .512-    230910 113 16.4+ 7.62+
230908 J95 .444- .830+    230909 J95 1.26+ .459-    230910 113 15.6+ 6.99+
230908 J95 .903- .536+    230909 J95 .837+ .380-    230910 113 13.8+ 6.80+
230908 J95 .646- .618+    230909 J95 1.27+ .494-    230910 113 23.6+ 10.1+
230908 J95 .869- .533+    230909 J95 .834+ .348-    230910 113 22.0+ 9.63+
230908 J95 .930- .587+    230909 J95 .569+ .330-    230910 J95 .829- .463-
230908 J95 .582- .725+    230909 J95 1.63+ .580-    230910 J95 .611- .415-
230908 J95 .676- .721+    230909 J95 .904+ .435-    230910 J95 .405- .392-
230908 J95 1.21- .696+    230910 033 15.1+ 6.71+    230910 J95 1.00- .738-
230908 J95 1.04- .736+    230910 033 5.15+ 2.25+    230910 J95 .955- .705-
230908 J95 .871- .554+    230910 033 8.99+ 3.20+    230910 J95 .745- .458-
230908 Y01 .403- .142+    230910 033 14.9+ 5.61+    230910 J95 .908- .460-
230908 Y01 .975- 1.11+    230910 033 9.30+ 3.68+    230910 J95 .903- .659-
230908 Y01 .743- .016-    230910 113 9.74+ 4.94+    230910 J95 .443- .468-
230908 Y01 .751- .713+    230910 113 7.25+ 3.75+    230910 J95 .816- .619-
230908 Y01 .316+ .270+    230910 113 5.71+ 3.61+    230910 Z84 .801- .521-
230908 Y01 .714- .538+    230910 113 16.7+ 7.47+    230910 Z84 9.6m+ .677-
230908 Y01 .590- .179+    230910 113 15.1+ 6.59+    230910 Z84 .319- .567-
230908 Y01 .247+ .513+    230910 113 12.6+ 5.95+
230908 Y01 1.17- .489+    230910 113 12.0+ 5.45+

